COSMOS 1275 DEB, 42203

Orbit data source: Space-Track

COSMOS 1275 DEB, 42203 is space debris in LEO originally from a launch on Thu, 04 Jun 1981 UTC launched from the Plesetsk Missile And Space Complex (PKMTR). Debris objects in space refer to the collection of defunct objects orbiting the Earth. Examples of debris include non-operational satellites, rocket bodies, and fragments generated from explosions, collisions, or faulty payload assembly.

Loading next visibility...
COSMOS 1275 DEB details
Identifier
42203, 1981-053TT
Orbit
LEO
Last TLE update3 days ago
Origin
Flag of CISGUKOS (CIS)
ManufacturerUnknown
MissionSpacecraft
Bus & MotorUnknown
MassUnknown
Launch date (UTC)
1981-06-04 (44 years ago)
Launch vehicleUnknown
Launch site
Plesetsk Missile And Space Complex (PKMTR)
Object type
Payload
Rocket body
Debris
Shape & HBRUnknown
Radar Cross SectionSmall (<0.1 m²)

Expand to show TLE details & history

TLE from 3 days ago
0 COSMOS 1275 DEB
1 42203U 81053TT  24346.15863429  .00001975  00000-0  19933-2 0  9994
2 42203  82.9949 311.6466 0116696 174.5262 198.7848 13.73868895552462
Epoch: 2024-12-11T03:48Z
Definitive object data (Epoch: 2024-12-11T03:48:26.002Z)
Latitude12.75021°
Longitude175.76603°
Altitude1,069.336 km
Speed7.278 km/s
True Right ascension20h 52m 55s
True Declination12° 40' 46"
Sunlit
Object was in daylight at TLE epoch
Visualization TLE readout
Latitude-3.95977°
Longitude-7.55116°
Altitude907.225 km
Speed7.439 km/s
Apparent Right ascension10h 58m 57s
Apparent Declination-28° 04' 43"
Sunlit
Object is in full shadow
Visualization observer readout
Local Sidereal Time02:50:37
Azimuth94.611° ESE
Elevation-41.412°
Doppler factor1
Orbital elements
Apogee altitude1,068.762 km
Perigee altitude896.962 km
Semi-major axis7,360.999 km
Eccentricity0.0116696
Inclination82.9949°
RAAN311.6466°
Arg. of periapsis174.5262°
True anomaly198.36006°
Mean anomaly198.7848°
Eccentric anomaly198.57185°
Mean motion3.43667 °/min
BSTAR0.0019933
Orbital period104.75 mins
Loading maneuver chart data...
Loading historical data...
Loading historical data...
Loading historical data...
Loading historical data...
Loading historical data...
Loading historical data...
Loading historical data...

COSMOS 1275 DEB Visibility forecast

Observer location: undefined°, undefined

Span
Click to sort rows by Start time (UTC) header in descending order
Start Az.
Max El. time (UTC)
Max El. Az.
Max El.
End time (UTC)
End Az.
10 mins2024-12-14 09:14:45.274Z2.12° NNE2024-12-14 09:19:45.274Z85.991° E41.284°2024-12-14 09:24:45.274Z159.689° S
5 mins2024-12-14 11:02:45.274Z299.557° NW2024-12-14 11:04:45.274Z275.859° WNW16.037°2024-12-14 11:07:45.274Z243.26° WSW
7 mins2024-12-14 21:01:45.274Z120.717° SE2024-12-14 21:04:45.274Z88.003° E20.557°2024-12-14 21:08:45.274Z43.557° NE
11 mins2024-12-14 22:44:45.274Z204.712° SW2024-12-14 22:49:45.274Z264.657° W39.559°2024-12-14 22:55:45.274Z356.673° N
|